NOAA 16 DEB

Satellite information

Favourite Embed

Satellite Type and Status

DEBRISIN ORBIT

Key statistics

Satellite NOAA 16 DEB at a glance.

Uptime

9054

Days in orbit

Revolutions

≈ 14.4

Per day

Orbit

SSO

Sun Synchronous Orbit

Inclination

98.9

Latest

Satellite identification and parameters

Extended collection of information and parameters for NOAA 16 DEB.

Object identification

Identified? True

Debris? True

Object name: NOAA 16 DEB

International designator: 2000-055RW

Object number (NORAD): 42378

Object ID (CCSDS): 42378

Country: UNITED STATES OF AMERICA (US)

Current information (Y/N): Y

RCS size: SMALL

Orbital parameters

Period: 99.924 minutes

Inclination: 98.8526 deg

SMA: 7133.003 km

Apoapsis: 770.474 km

Periapsis: 739.263 km

RAAN: 314.5132 deg

Eccentricy: 0.0021878

Argument of periapsis: 94.01 deg

Mean anomaly: 266.3589 deg

Mean motion: 14.41100014 rev/day

Mean motion (dot): 0.00005402 rev/day2

B* drag term: 0.0016859 1/REarth

Two-line elements (TLE)

Creation date: July 4, 2025, 6:39 p.m.

Reference frame: TEME

Reference center: EARTH

Epoch: July 4, 2025, 7:37 a.m. UTC

TLE line 0: 0 NOAA 16 DEB

TLE line 1: 1 42378U 00055RW 25185.31794240 .00005402 00000-0 16859-2 0 9997

TLE line 2: 2 42378 98.8526 314.5132 0021878 94.0100 266.3589 14.41100014484093

Live tracking on map

Real-time ground track for satellite NOAA 16 DEB.

In-orbit conjunctions

A list of the most updated potential collisions computed for object NOAA 16 DEB.

Target Orbit TCA Probability of collision Miss distance Type
OSCAR 17 (DOVE) SSO 2025-02-09 01:26:52 0.0004473899 362.0 (m) PAYLOAD
CZ-6A DEB LEO 2025-01-11 08:21:16 0.0001237822 983.0 (m) DEBRIS
CZ-6A DEB LEO 2024-09-21 15:31:16 0.0001530764 812.0 (m) DEBRIS
THORAD AGENA D DEB LEO 2024-08-10 23:02:30 0.0001507581 68.0 (m) DEBRIS

Associated space launch

The NOAA K, L and M POES satellites begin the fifth generation of improved environmental monitoring in support of NOAA missions. The instrument payload has significant improvements and additions/deletions. The instrument changes have effected the spacecraft subsystems and data formats.

NOAA 16 DEB was lifted into orbit during the mission ‘Titan II SLV | NOAA 16’, on board a Titan II SLV space rocket.

The launch took place on Sept. 21, 2000, 10:22 a.m. from Space Launch Complex 4W.

For more information about the launch, click the button.

Launch to space Titan II SLV | NOAA 16
Titan II SLV | NOAA 16

Agency: N/A

Status: Launch Successful

Launch date: Sept. 21, 2000, 10:22 a.m. UTC

Rocket: Titan II SLV

Launch pad: Space Launch Complex 4W

Location: Vandenberg SFB, CA, USA

...

Latest news about this satellite

There are no fresh news available about this satellite. Check back as we update our databases every day.


Newsletter sign-up

Weekly statistics, charts and insights to help you stay on top of the space industry.